Regional Weather Roundup
Issued by NWS Burlington, VT

Home | Current Version | Previous Version | Text Only | Print | Product List | Glossary On
Versions: 1 2 3 4 5 6 7 8 9 10 11 12 13 14 15 16 17 18 19 20 21 22 23 24 25 26 27 28 29 30 31 32 33 34 35 36 37 38 39 40 41 42 43 44 45 46 47 48 49 50
000
ASUS41 KBTV 170630
RWRBTV
VERMONT REGIONAL WEATHER ROUNDUP
NATIONAL WEATHER SERVICE BURLINGTON VT
200 AM EDT WED SEP 17 2014

NOTE: "FAIR" INDICATES FEW OR NO CLOUDS BELOW 12,000 FEET WITH NO
SIGNIFICANT WEATHER AND/OR OBSTRUCTIONS TO VISIBILITY.

* THESE REPORTS ARE NOT UNDER NWS QUALITY CONTROL AND/OR DO NOT
  REPORT WEATHER SUCH AS PRECIPITATION AND FOG.

VTZ001>019-170700-
_____VERMONT_____


CITY           SKY/WX    TMP DP  RH WIND       PRES   REMARKS
BURLINGTON     CLEAR     48  46  93 SE3       29.99S
6HR MIN TEMP:  48; 6HR MAX TEMP:  59;

MONTPELIER     CLEAR     42  41  96 S5        30.03R
6HR MIN TEMP:  41; 6HR MAX TEMP:  50;

MORRISVILLE    FOG       45  43  93 CALM      30.00S VSB 1/4
6HR MIN TEMP:  45; 6HR MAX TEMP:  52;

ST. JOHNSBURY*   N/A     46  46 100 MISG      29.98S
6HR MIN TEMP:  46; 6HR MAX TEMP:  52;

MIDDLEBURY*    FAIR      47  47 100 CALM      30.00S
6HR MIN TEMP:  47; 6HR MAX TEMP:  54;

RUTLAND*       CLEAR     45  43  93 SE6       30.01S
6HR MIN TEMP:  46; 6HR MAX TEMP:  54;

SPRINGFIELD    FOG       47  47 100 CALM      30.01S VSB 1/4
6HR MIN TEMP:  47; 6HR MAX TEMP:  55;

HIGHGATE*      FAIR      48  46  93 S3        29.97S
6HR MIN TEMP:  45; 6HR MAX TEMP:  53;

NEWPORT*       FAIR      41  41 100 SW6       29.98S
6HR MIN TEMP:  41; 6HR MAX TEMP:  49;

BENNINGTON     CLEAR     42  41  96 SE5       30.03S FOG
6HR MIN TEMP:  42; 6HR MAX TEMP:  57;

SUTTON*          N/A     45 N/A N/A MISG        N/A
GALLUP MILLS*    N/A     37 N/A N/A MISG        N/A
UNION VILLAGE*   N/A     48 N/A N/A MISG        N/A
MT. MANSFIELD*   N/A     41 N/A N/A NW15        N/A

_____LAKE CHAMPLAIN_____


CITY           SKY/WX    TMP DP  RH WIND       PRES   REMARKS
BURTON ISLAND*   N/A     57  50  77 SW8         N/A
COLCHESTER RF*   N/A     59  46  63 W10         N/A
DIAMOND ISL*     N/A     52  48  87 S3          N/A

$$

NYZ007-026>031-035-052-083-170700-
_____NORTHERN NEW YORK_____


CITY           SKY/WX    TMP DP  RH WIND       PRES   REMARKS
PLATTSBURGH    CLEAR     44  44 100 CALM      29.98R FOG
6HR MIN TEMP:  42; 6HR MAX TEMP:  54;

SARANAC LAKE   CLEAR     41  40  96 SW3       29.99R
6HR MIN TEMP:  39; 6HR MAX TEMP:  48;

MASSENA        CLEAR     45  44  97 SW5       29.99S
6HR MIN TEMP:  43; 6HR MAX TEMP:  53;

OGDENSBURG*    CLEAR     45  43  93 CALM      29.99S
PARISHVILLE*     N/A     48 N/A N/A W2          N/A
WATERTOWN      CLEAR     44  38  79 CALM      30.02S
6HR MIN TEMP:  42; 6HR MAX TEMP:  61;

FT DRUM        CLEAR     49  40  71 W5        30.01S
6HR MIN TEMP:  49; 6HR MAX TEMP:  56;

ALBANY         CLEAR     49  44  83 W5        30.04R
6HR MIN TEMP:  49; 6HR MAX TEMP:  58;

GLENS FALLS    PTCLDY    42  40  92 N3        30.02S FOG
6HR MIN TEMP:  42; 6HR MAX TEMP:  52;


$$
NHZ002-005-011-170700-
_____NEW HAMPSHIRE_____


CITY           SKY/WX    TMP DP  RH WIND       PRES   REMARKS
LEBANON        FOG       49  46  90 CALM      30.00S VSB 1/4
6HR MIN TEMP:  46; 6HR MAX TEMP:  53;

KEENE          CLOUDY    48  41  76 CALM      30.02F VSB 1/4
6HR MIN TEMP:  48; 6HR MAX TEMP:  54;

MT WASHINGTON  FOG       34  34 100 W32G45      N/A  VSB 0
6HR MIN TEMP:  33; 6HR MAX TEMP:  35; 6HR PCP:  0.01;

PLYMOUTH       FOG       47  47 100 CALM      30.00S VSB 1/2
6HR MIN TEMP:  47; 6HR MAX TEMP:  49;

WHITEFIELD     CLOUDY    45  43  93 CALM      29.99S
6HR MIN TEMP:  42; 6HR MAX TEMP:  51;


$$

_____REGIONAL QUEBEC LOCATIONS_____


CITY           SKY/WX    TMP DP  RH WIND       PRES   REMARKS
MONTREAL       CLEAR     48  43  81 SW7       29.95S
QUEBEC CITY    MOCLDY    48  45  87 SW9       29.88S
SHERBROOKE     FOG       39  39 100 SE3       29.95S VSB 3/4

_____REGIONAL ONTARIO LOCATIONS_____


CITY           SKY/WX    TMP DP  RH WIND       PRES   REMARKS
OTTAWA         CLEAR     45  43  93 SW7       29.97F

______KEY______
VSB  - VISIBILITY IN MILES
WCI  - WIND CHILL INDEX
HX   - HEAT INDEX
$$



USA.gov is the U.S. government's official web portal to all federal, state and local government web resources and services.